Regional Weather Roundup
Issued by NWS Wakefield, VA

Home | Current Version | Previous Version | Text Only | Print | Product List | Glossary Off
Versions: 1 2 3 4 5 6 7 8 9 10 11 12 13 14 15 16 17 18 19 20 21 22 23 24 25 26 27 28 29 30 31 32 33 34 35 36 37 38 39 40 41 42 43 44 45 46 47 48 49 50

000
ASUS41 KAKQ 290715
RWRAKQ

REGIONAL WEATHER ROUNDUP
NATIONAL WEATHER SERVICE WAKEFIELD VA
300 AM EDT FRI MAY 29 2015

Note: "fair" indicates few or no clouds below 12,000 feet with no
significant weather and/or obstructions to visibility. * = Denotes
station may not report precipitation (e.g., rain,snow,etc.),
thunder or fog.

VAZ042-051-052>054-056-290800-
NORTHERN VIRGINIA

CITY           SKY/WX    TMP DP  RH WIND       PRES   REMARKS
WASH NATIONAL  CLOUDY    77  68  73 CALM      30.20F
DULLES         PTCLDY    69  66  90 E3        30.19F
FORT BELVOIR   CLEAR     68  66  94 SE1       30.19F
QUANTICO       PTCLDY    71  68  90 NW3       30.19F
FREDERICKSBRG* CLEAR     71  71 100 CALM      30.18F
STAFFORD*      CLEAR     66  65  96 CALM      30.23F
WARRENTON      CLEAR     66  66 100 CALM      30.19F FOG
CULPEPER*      CLEAR     65  65  99 CALM      30.19F
MANASSAS*      CLEAR     66  66 100 CALM      30.19F
LEESBURG*      MOCLDY    72  66  83 NE6       30.22F
WINCHESTER     MOCLDY    66  61  82 CALM      30.22S
FRONT ROYAL*   FAIR      64  64 100 CALM      30.21S
LURAY*         FAIR      64  64 100 CALM      30.22F FOG
$$

VAZ048-049-060>072-079>083-290800-
CENTRAL AND SOUTH CENTRAL VIRGINIA

CITY           SKY/WX    TMP DP  RH WIND       PRES   REMARKS
RICHMOND       PTCLDY    72  67  84 S5        30.20F
CHESTERFIELD*  NOT AVBL
PETERSBURG*    CLEAR     69  69 100 CALM      30.21S
HANOVER        PTCLDY    68  67  96 CALM      30.21F
TAPPAHANNOCK*  PTCLDY    70  66  87 S3        30.21S
QUINTON*       FAIR      71  67  87 S6        30.20F
CHARLOTTSVILLE CLEAR     67  65  93 CALM      30.20F
GORDONSVILLE*  FAIR      65  65  98 CALM      30.18F FOG
ORANGE*        CLEAR     68  66  94 N3        30.21F
LOUISA*        MOCLDY    68  66  94 CALM      30.18F
BUMPASS*       FAIR      67  66  96 CALM      30.20S
FARMVILLE*     PTCLDY    68  68 100 CALM      30.18F
CREWE*         FAIR      65  64  95 CALM      30.20F
FORT PICKETT*  FAIR      66  64  94 S5        30.20F
CHASE CITY*    FAIR      67  67 100 CALM      30.20S
CLARKSVILLE*   FAIR      64  64 100 CALM      30.19F
SOUTH HILL*    CLEAR     68  66  93 CALM      30.26S
LAWRENCEVILLE* FAIR      68  66  94 CALM      30.20S
EMPORIA*       CLEAR     64  64 100 CALM      30.22S
$$

VAZ088>098-290800-
SOUTHEAST VIRGINIA

CITY           SKY/WX    TMP DP  RH WIND       PRES   REMARKS
NORFOLK        CLOUDY    72  62  71 S8        30.21F
VIRGINIA BEACH MOCLDY    72  63  73 S3        30.21F
NORFOLK NAVAL  MOCLDY    76  63  64 S8        30.22F
WEST POINT*    PTCLDY    74  65  73 S3        30.22F
SALUDA*        FAIR      71  67  88 S6        30.20F
NEWPORT NEWS   PTCLDY    75  63  66 SW7       30.21F
LANGLEY AFB    PTCLDY    71  64  76 SW8       30.20F
FORT EUSTIS    CLEAR     71  65  81 S7        30.20S
WILLIAMSBURG*  CLEAR     73  66  78 S7        30.22F
HR EXEC AP*    FAIR      70  63  78 S6        30.23F
FRANKLIN*      CLOUDY    69  63  81 S6        30.22S
WAKEFIELD      CLOUDY    70  64  81 CALM      30.21S
$$

VAZ020-022-025-037-045-290800-
WEST CENTRAL AND SOUTHWEST VIRGINIA

CITY           SKY/WX    TMP DP  RH WIND       PRES   REMARKS
STAUNTON*      PTCLDY    65  63  93 CALM      30.25S FOG
WAYNESBORO*    FAIR      63  63  97 CALM      30.24F
HOT SPRINGS VA PTCLDY    63  58  84 CALM      30.32F
LYNCHBURG      CLEAR     63  63 100 CALM      30.21F
DANVILLE       CLEAR     66  63  90 CALM      30.20F
SOUTH BOSTON*  FAIR      63  61  95 CALM      30.20S
MARTINSVILLE   PTCLDY    64  64 100 CALM      30.23F FOG
ROANOKE        PTCLDY    68  64  87 E3        30.23F
BLACKSBURG     PTCLDY    63  62  97 CALM      30.29S FOG
DUBLIN*        MOCLDY    63  63 100 CALM      30.26F
MARION*        FOG       62  61  96 E7        30.29S VSB 1/4
HILLSVILLE*    NOT AVBL
RICHLANDS*     FAIR      63  62  96 SE3       30.24F
WISE*          CLOUDY    64  61  88 S3        30.23F
ABINGDON*      PTCLDY    64  62  92 CALM      30.22F
$$

MDZ021>025-VAZ099-100-290800-
SOUTHERN MARYLAND AND THE DELMARVA PENINSULA

CITY           SKY/WX    TMP DP  RH WIND       PRES   REMARKS
PATUXENT RIVER CLEAR     68  66  93 CALM      30.20S
BAY BRIDGE APT   N/A    N/A N/A N/A E8        30.22S
LEONARDTOWN    CLEAR     68  64  88 CALM      30.21F
DOVER          MOCLDY    72  72 100 E2        30.19F
GEORGETOWN     PTCLDY    67  62  84 SW3       30.22F
EASTON         MOCLDY    73  73 100 E3        30.25S
CAMBRIDGE      PTCLDY    72  68  88 CALM      30.21S
SALISBURY      PTCLDY    63  61  93 CALM      30.22S
OCEAN CITY     MOCLDY    65  62  90 S5        30.22F
WALLOPS ISLAND CLOUDY    67  64  90 S9        30.23S
ACCOMACK*      CLOUDY    68  66  94 S6        30.22S
$$

NCZ012>017-030>032-290800-
NORTH CENTRAL AND EASTERN NORTH CAROLINA

CITY           SKY/WX    TMP DP  RH WIND       PRES   REMARKS
ROANOKE RAPIDS FAIR      68  64  88 CALM      30.21S
RALEIGH        PTCLDY    69  66  90 S3        30.21F
ELIZABETH CITY CLEAR     69  63  81 S5        30.22F
AHOSKIE*       PTCLDY    67  63  85 CALM      30.22S
EDENTON*       CLEAR     69  64  84 S5        30.22F
CURRITUCK*     CLEAR     67  63  87 CALM      30.23S
KILL DEVIL HLS   N/A     69  64  82 CALM      30.22S
MANTEO         CLEAR     65  62  89 CALM      30.23S
CAPE HATTERAS  CLEAR     66  61  84 CALM      30.22F
TARBORO*       FAIR      67  64  89 CALM      30.22F
GOLDSBORO      MOCLDY    68  64  86 CALM      30.19F
WASHINGTON     CLEAR     67  63  86 CALM      30.22F
GREENVILLE     PTCLDY    68  63  83 CALM      30.22F
NEW BERN       CLEAR     62  59  90 CALM      30.23F
WILMINGTON     CLEAR     63  61  93 CALM      30.20F
$$

VAZ048-290800-
ELSEWHERE

CITY           SKY/WX    TMP DP  RH WIND       PRES   REMARKS
HARRISBURG PA  CLEAR     65  55  70 CALM      30.24F
BALTIMORE      MOCLDY    73  70  88 E6        30.21S
ANNAPOLIS      CLOUDY    73  69  87 E8        30.21R
ANDREWS AFB    MOCLDY    69  69  98 E5        30.20S
PHILADELPHIA   CLEAR     72  53  51 NE10      30.25R
HENDERSON NC   PTCLDY    69  65  89 S5        30.21F
GREENSBORO     PTCLDY    70  65  84 CALM      30.19F
ROCKY MOUNT    CLOUDY    70  65  84 S3        30.21F
$$

VAZ100-290800-
MARINE

STATION/POSITION TIME  TEMP    WIND        PRES    WAVE   SWELL
                       AIR SEA DIR/SP/G            HT/PER HT/PER
                 (UTC) (F)     (DEG/KT/KT) (MB)    (FT/S) (FT/S)
BRANDYWINE LGT   0600   69 68  200/  8/  9 1023.4R
CAPE MAY NJ      0600   66 70  140/  3/  5 1023.1R
LEWES DE         0600   70 62  210/  6/  9 1023.1S
15NM E FENWICK I 0650   64 63              1023.3F   3/ 8
OCEAN-CITY-INLET 0600   64 67  200/  6/  9 1023.4R
WACHAPREAGUE VA  0600   70 75  210/  7/  9 1023.4F
THOMAS POINT MD  0700   73 71   50/  7/  7 1023.4F
GOOSES REEF MD   0700   72 71  180/  6/  8 1023.6R   1/ 3
COVE POINT MD    0600   70     170/  6/  7 1023.4F
SOLOMONS ISLAND  0600      72                N/A
BISHOPS HEAD MD  0600   74 75  170/ 10/ 11 1022.5F
PINEY POINT MD   0600          170/  5/  6   N/A
CAMBRIDGE MD     0600   72 75  140/  2/  4 1022.6F
LEWISETTA VA     0600   73 75              1022.3F
RAPPAHANNOCK LGT 0600          170/ 13/ 15 1023.5F
STINGRAY PT      0700   73 73  210/  8/ 10 1022.6F   1/ 3
YORK RVR RNG VA  0600   74     210/ 11/ 12 1022.5R
YORKTOWN VA      0600   72 73  210/  7/ 10 1022.7S
JAMESTOWN VA     0700   72 77  160/  6/ 10 1022.0F
DOMINION TERM VA 0600   72     190/  8/  9 1023.4S
KIPTOPEKE VA     0600      77  200/  9/ 10   N/A
CHES BAY BRIDGE  0600   72 72  180/ 10/ 12 1022.9S
CAPE HENRY VA    0600   72     190/  8/ 11 1022.0F
CHESAPEAKE LGHT  0600   69     190/ 15/ 15 1023.9S
WILLOUBY STN VA  0600   73     200/ 13/ 16 1023.9S
CAPE HENRY BUOY  0628      62                N/A     3/ 8
1ST LANDING BUOY 0700      71              1022.8F
CAPE CHARLES BUO 0626      69                N/A     3/ 8   3/ 8
OFFSHORE WE BUOY 0611      66                N/A     4/ 8   3/ 8
64NM E OF VA BCH 0650   67 65  100/  2/  4 1023.3F   3/ 8   3/ 8
DUCK PIER NC     0600   71 55  190/  4/  5 1022.7F
44100 DUCK FRF   0624      67                N/A     3/ 8
44056 DUCK FRF   0611      60                N/A     3/ 8
OREGON INLET NC  0600   73 78  170/  5/  7 1023.6F
HATTERAS NC      0600   74 76  170/  3/  4 1023.1F
DIAMOND SHLS NC  0650   75 77  150/  4/  4 1023.0F   4/ 9   5/ 9
CAPE LOOKOUT NC  0700   72        CALM     1022.8F
$$



USA.gov is the U.S. government's official web portal to all federal, state and local government web resources and services.